Regional Weather Roundup
Issued by NWS Memphis, TN

Home | Current Version | Previous Version | Text Only | Print | Product List | Glossary On
Versions: 1 2 3 4 5 6 7 8 9 10 11 12 13 14 15 16 17 18 19 20 21 22 23 24 25 26 27 28 29 30 31 32 33 34 35 36 37 38 39 40 41 42 43 44 45 46 47 48 49 50
000
ASUS44 KMEG 312000
RWRMEG
MEMPHIS CWA HOURLY WEATHER ROUNDUP
NATIONAL WEATHER SERVICE MEMPHIS TN
300 PM CDT MON AUG 31 2015

...WEST TENNESSEE...

CITY           SKY/WX    TMP DP  RH WIND       PRES   REMARKS
MEMPHIS INTL   PTSUNNY   90  69  50 SW3       30.06F HX  94
NWS MEMPHIS      N/A     90 N/A N/A MISG        N/A
JACKSON        SUNNY     86  65  49 E5        30.08F
LEXINGTON      MOSUNNY   84  64  51 S5        30.08F
DYERSBURG      SUNNY     84  70  61 E6        30.08S
UNION CITY     SUNNY     88  68  51 E5        30.06F HX  91
PARIS          SUNNY     84  64  51 VRB6      30.10F


...EASTERN ARKANSAS...

CITY           SKY/WX    TMP DP  RH WIND       PRES   REMARKS
JONESBORO      SUNNY     87  69  54 VRB5      30.04F HX  91
WEST MEMPHIS   MOSUNNY   89  69  51 MISG      30.04F HX  93
BATESVILLE     MOSUNNY   88  72  58 E8        30.04F HX  94
WALNUT RIDGE   SUNNY     90  70  51 S6        30.04F HX  95
BLYTHEVILLE    SUNNY     89  70  53 SE6       30.06F HX  94
SEARCY         MOSUNNY   94  69  44 E6        30.04F HX  99
STUTTGART      SUNNY     91  70  49 E7        30.03F HX  97
PINE BLUFF     MOSUNNY   92  66  42 S5        30.01F HX  94
MONTICELLO     LGT RAIN  92  66  42 E7        30.01F HX  94


...NORTH MISSISSIPPI...

CITY           SKY/WX    TMP DP  RH WIND       PRES   REMARKS
TUPELO         MOSUNNY   87  66  49 NE6       30.07F
OXFORD         MOSUNNY   86  66  51 E7        30.08F
TUNICA         SUNNY     90  68  48 E5        30.05F HX  93
GREENWOOD      SUNNY     92  62  36 E5        30.02F HX  92
COLUMBUS       SUNNY     87  67  51 VRB7      30.05F HX  90
STARKVILLE     FAIR      88  66  48 N6        30.05F HX  90
GOLDEN TRIANGL MOSUNNY  N/A N/A N/A N9        30.06F


...SOUTHEAST MISSOURI...

CITY           SKY/WX    TMP DP  RH WIND       PRES   REMARKS
WEST PLAINS    MOSUNNY   87  68  52 S6        30.08F HX  90
POPLAR BLUFF   MOSUNNY   88  72  58 VRB7      30.04F HX  94
CAPE GIRARDEAU MOSUNNY   86  69  56 VRB6      30.05F HX  90


...NORTHWEST ALABAMA...

CITY           SKY/WX    TMP DP  RH WIND       PRES   REMARKS
MUSCLE SHOALS  MOSUNNY   84  67  56 E3        30.11F


...MIDDLE TENNESSEE...

CITY           SKY/WX    TMP DP  RH WIND       PRES   REMARKS
NASHVILLE      PTSUNNY   86  62  44 SE5       30.10F
CLARKSVILLE    MOSUNNY   86  63  45 VRB3      30.09F
COLUMBIA       MOSUNNY   88  68  51 CALM      30.09F HX  91


...WESTERN KENTUCKY...

CITY           SKY/WX    TMP DP  RH WIND       PRES   REMARKS
PADUCAH        SUNNY     87  67  51 VRB6      30.07F HX  90
FORT CAMPBELL  PTSUNNY   84  66  54 CALM      30.09F


...CENTRAL ARKANSAS...

CITY           SKY/WX    TMP DP  RH WIND       PRES   REMARKS
LITTLE ROCK    MOSUNNY   93  65  39 SE10      30.01F HX  95


SKY/WX REPORTED AS FAIR MEANS FEW OR NO CLOUDS BELOW
12 THOUSAND FEET.




USA.gov is the U.S. government's official web portal to all federal, state and local government web resources and services.